Date,TemperatureHighF,TemperatureAvgF,TemperatureLowF,DewpointHighF,DewpointAvgF,DewpointLowF,HumidityHigh,HumidityAvg,HumidityLow,PressureMaxIn,PressureMinIn,WindSpeedMaxMPH,WindSpeedAvgMPH,GustSpeedMaxMPH,PrecipitationSumIn
2013-2-1,63.7,44.9,28.8,22.5,16.5,12.9,54,34,18,30.25,30.13,7,1,7,0.00
2013-2-2,67.7,48.7,33.5,20.4,15.2,12.0,46,29,13,30.32,30.20,9,1,9,0.00
2013-2-3,65.3,51.9,38.2,32.9,19.9,12.9,41,29,18,30.25,29.97,10,1,10,0.00
2013-2-4,68.8,57.4,47.3,35.1,30.8,27.6,50,37,28,30.07,29.96,14,2,14,0.00
2013-2-5,68.8,52.6,38.0,31.0,26.7,22.8,61,39,23,30.08,29.95,6,1,6,0.00
2013-2-6,69.1,53.4,36.2,32.9,26.3,20.4,60,37,20,30.00,29.89,15,2,15,0.00
2013-2-7,67.7,55.5,45.0,32.9,27.2,18.1,54,35,23,30.11,29.99,8,2,8,0.00
2013-2-8,70.4,54.8,40.7,30.5,24.4,12.6,51,33,15,30.11,29.85,12,2,12,0.00
2013-2-9,63.0,49.7,41.0,24.0,17.7,7.5,43,29,13,29.95,29.74,27,8,27,0.00
2013-2-10,55.8,44.5,35.1,18.6,13.2,5.7,45,30,15,30.01,29.90,22,4,22,0.00
2013-2-11,61.9,45.2,27.0,27.8,12.3,4.1,54,28,16,30.00,29.86,16,3,16,0.00
2013-2-12,52.4,42.3,32.0,32.3,16.7,-0.2,72,41,13,30.12,29.96,19,5,19,0.00
2013-2-13,56.2,41.5,25.6,15.4,9.1,4.6,43,28,16,30.16,30.02,13,2,13,0.00
2013-2-14,61.9,44.5,26.6,18.1,10.9,2.6,38,27,17,30.12,29.96,11,1,11,0.00
2013-2-15,58.3,46.4,37.1,29.2,22.5,11.7,59,40,29,30.30,30.11,8,2,8,0.00
2013-2-16,63.0,46.9,30.8,17.8,12.6,7.4,50,27,16,30.29,30.13,7,1,7,0.00
2013-2-17,69.3,50.6,26.6,14.8,8.9,3.7,38,21,7,30.13,29.82,25,5,25,0.00
2013-2-18,66.1,56.6,47.5,15.0,7.3,1.5,21,14,8,30.07,29.88,20,5,20,0.00
2013-2-19,59.9,49.1,38.9,44.6,19.9,3.6,86,39,16,30.04,29.90,14,2,14,0.37
2013-2-20,61.2,49.0,36.7,42.9,30.3,19.2,87,55,22,29.80,29.60,31,8,31,0.02
2013-2-21,52.7,41.5,32.9,25.1,22.2,18.6,62,47,30,29.96,29.76,34,8,34,0.00
2013-2-22,56.7,45.3,32.4,24.4,22.0,18.5,67,42,23,30.04,29.92,24,5,24,0.00
2013-2-23,60.1,48.3,33.5,22.7,18.0,11.3,43,31,18,30.08,29.78,17,3,17,0.00
2013-2-24,63.2,48.7,34.4,24.5,16.9,4.8,49,30,15,29.91,29.63,36,10,36,0.00
2013-2-25,54.2,43.4,32.6,16.9,11.8,6.9,50,29,17,30.07,29.90,16,4,16,0.00
2013-2-26,65.3,49.8,32.8,17.2,8.1,-2.2,40,20,6,30.05,29.81,22,5,22,0.00
2013-2-27,57.2,44.7,33.7,10.8,3.5,-3.1,31,19,11,30.24,30.04,11,2,11,0.00
2013-2-28,59.0,44.1,29.3,17.2,10.5,3.8,49,28,13,30.29,30.18,8,1,8,0.00